Regional Weather Roundup
Issued by NWS

Home | Current Version | Previous Version | Graphics & Text | Print | Product List | Glossary On
Versions: 1 2 3 4 5 6 7 8 9 10 11 12 13 14 15 16 17 18 19 20 21 22 23 24 25 26 27 28 29 30 31 32 33 34 35 36 37 38 39 40 41 42 43 44 45 46 47 48 49 50
000
ASUS43 KFSD 250502
RWRSD

WEATHER ROUNDUP FOR SOUTH DAKOTA
NATIONAL WEATHER SERVICE SIOUX FALLS SD
1200 AM CDT SAT APR 25 2015

NOTE: "FAIR" INDICATES FEW OR NO CLOUDS BELOW 12,000 FEET WITH NO
SIGNIFICANT WEATHER AND/OR OBSTRUCTIONS TO VISIBILITY.


SDZ001>005-009-010-012>017-250600-
NORTHWEST AND NORTH CENTRAL SOUTH DAKOTA

CITY           SKY/WX    TMP DP  RH WIND       PRES   REMARKS
BUFFALO          N/A     49  33  54 E14       29.57F
FAITH            N/A     46  36  68 NE8       29.63S
MOBRIDGE       CLEAR     49  43  80 E22       29.61S
$$

SDZ012>016-024>037-041>051-057-063-072>074-250600-
SOUTHWEST AND SOUTH CENTRAL SOUTH DAKOTA

CITY           SKY/WX    TMP DP  RH WIND       PRES   REMARKS
RAPID CTY ARPT PTCLDY    46  42  86 NW8       29.62S
PIERRE         PTCLDY    51  44  77 NE22      29.54S
CUSTER         CLEAR     41  36  82 N5        29.68S
ELLSWORTH AFB  PTCLDY    48  42  82 NW8       29.62S
PHILIP         CLOUDY    50  43  77 CALM      29.59R
PINE RIDGE     MOCLDY    47  44  90 CALM      29.62R
WINNER         LGT RAIN  59  47  64 W20       29.52R
$$

SDZ004>011-016>023-039-040-250600-
NORTHEAST SOUTH DAKOTA

CITY           SKY/WX    TMP DP  RH WIND       PRES   REMARKS
ABERDEEN       CLOUDY    48  43  82 NE16      29.68S
WATERTOWN      LGT RAIN  46  43  89 E10       29.67R
BROOKINGS      CLOUDY    46  45  93 E15       29.66F
SISSETON         N/A     45  43  93 SE16      29.73R
$$

SDZ017-020-022-023-036>040-048>070-250600-
SOUTHEAST SOUTH DAKOTA

CITY           SKY/WX    TMP DP  RH WIND       PRES   REMARKS
SIOUX FALLS    CLOUDY    52  47  83 SE12      29.61R
HURON          CLOUDY    50  46  86 E28G36    29.57R
MITCHELL       CLOUDY    60  49  66 E21       29.48F
YANKTON        CLOUDY    61  52  72 E12G18    29.57R
$$

ABBREVIATIONS USED IN REMARKS
   TC - TEMPERATURE IN CELSIUS
  WCI - WIND CHILL INDEX
   HX - HEAT INDEX
  VSB - VISIBILITY




USA.gov is the U.S. government's official web portal to all federal, state and local government web resources and services.